Weather History for CYMX - April, 2014

Change the Weather History Date:

Sunday, April 27, 2014

  Actual Average Record
Temperature  
Mean Temperature 44 °F -  
Max Temperature 50 °F 56 °F 68 °F (2008)
Min Temperature 37 °F 36 °F 28 °F (2002)
Degree Days  
Heating Degree Days 22    
Moisture  
Dew Point 36 °F    
Average Humidity 76    
Maximum Humidity 93    
Minimum Humidity 57    
Precipitation  
Precipitation 0.00 in - - ()
Sea Level Pressure  
Sea Level Pressure 30.07 in    
Wind  
Wind Speed 7 mph ()    
Max Wind Speed 13 mph    
Max Gust Speed 18 mph    
Visibility 15.0 miles    
Events Rain    
Averages and records for this station are not official NWS values.
T = Trace of Precipitation, MM = Missing Value Source: Averaged Metar Reports

Daily Weather History Graph

Daily Weather History Graph

Search for Another Location

Airport or City:

Trip Planner

Search our weather history database for the weather conditions in past years. The results will help you decide how hot, cold, wet, or windy it might be!

Date:

Astronomy

Apr. 27, 2014 Rise Set
Actual Time 5:50 AM EDT 7:58 PM EDT
Civil Twilight 5:17 AM EDT 8:30 PM EDT
Nautical Twilight 4:37 AM EDT 9:10 PM EDT
Astronomical Twilight 3:53 AM EDT 9:55 PM EDT
Moon 4:55 AM EDT (4/27) 6:24 PM EDT (4/27)
Length of Visible Light 15h 12m
Length of Day
14h 08m
Waning Crescent, 3% of the Moon is Illuminated
Apr 27
Waning Crescent
Apr 29
New
May 6
First Quarter
May 14
Full
May 21
Last Quarter

Hourly Weather History & Observations

Time (EDT) Temp. Windchill Dew Point Humidity Pressure Visibility Wind Dir Wind Speed Gust Speed Precip Events Conditions
12:00 AM 37.4 °F 29.8 °F 35.6 °F 93% 29.90 in 10.0 mi North 11.5 mph - N/A Rain Light Rain
1:00 AM 37.4 °F 31.4 °F 35.6 °F 93% 29.91 in 10.0 mi North 8.1 mph - N/A Rain Light Rain
2:00 AM 37.4 °F 30.8 °F 35.6 °F 93% 29.92 in 15.0 mi North 9.2 mph - N/A Rain Light Rain
3:00 AM 37.4 °F 31.4 °F 35.6 °F 93% 29.92 in 15.0 mi North 8.1 mph - N/A Rain Light Rain
4:00 AM 37.4 °F 32.8 °F 35.6 °F 93% 29.94 in 15.0 mi North 5.8 mph - N/A Rain Light Rain
5:00 AM 39.2 °F 35.0 °F 35.6 °F 87% 29.96 in 15.0 mi North 5.8 mph - N/A Rain Light Rain
6:00 AM 39.2 °F 35.0 °F 35.6 °F 87% 29.98 in 25.0 mi NNE 5.8 mph - N/A   Overcast
7:00 AM 39.2 °F 33.0 °F 35.6 °F 87% 30.02 in 20.0 mi North 9.2 mph - N/A   Overcast
8:00 AM 41.0 °F 35.2 °F 35.6 °F 81% 30.04 in 25.0 mi North 9.2 mph - N/A   Overcast
9:00 AM 41.0 °F 35.8 °F 35.6 °F 81% 30.06 in 45.0 mi NNE 8.1 mph - N/A   Overcast
10:00 AM 41.0 °F 33.9 °F 35.6 °F 81% 30.09 in 45.0 mi North 12.7 mph 18.4 mph N/A   Overcast
11:00 AM 44.6 °F 40.7 °F 35.6 °F 71% 30.10 in 45.0 mi NNE 6.9 mph - N/A   Mostly Cloudy
12:00 PM 46.4 °F 42.4 °F 33.8 °F 62% 30.10 in 25.0 mi NE 8.1 mph - N/A   Mostly Cloudy
1:00 PM 46.4 °F 42.9 °F 32.0 °F 57% 30.10 in 25.0 mi North 6.9 mph - N/A   Mostly Cloudy
2:00 PM 48.2 °F - 35.6 °F 62% 30.11 in 25.0 mi East 8.1 mph 17.3 mph N/A   Mostly Cloudy
3:00 PM 48.2 °F - 33.8 °F 58% 30.12 in 25.0 mi North 10.4 mph - N/A   Mostly Cloudy
3:22 PM 48.2 °F - 35.6 °F 62% 30.12 in 20.0 mi NE 10.4 mph - N/A Rain Light Rain Showers
4:00 PM 50.0 °F - 35.6 °F 58% 30.12 in 45.0 mi East 5.8 mph - N/A   Mostly Cloudy
5:00 PM 48.2 °F - 35.6 °F 62% 30.13 in 45.0 mi East 3.5 mph - N/A   Mostly Cloudy
5:52 PM 48.2 °F - 35.6 °F 62% 30.13 in 45.0 mi ENE 6.9 mph - N/A Rain Light Rain Showers
6:00 PM 48.2 °F - 35.6 °F 62% 30.13 in 45.0 mi ENE 6.9 mph - N/A Rain Light Rain Showers
6:19 PM 48.2 °F - 35.6 °F 62% 30.13 in 45.0 mi North 4.6 mph - N/A   Mostly Cloudy
7:00 PM 48.2 °F - 35.6 °F 62% 30.15 in 45.0 mi North 9.2 mph - N/A Rain Light Rain Showers
8:00 PM 44.6 °F 43.1 °F 39.2 °F 81% 30.17 in 45.0 mi ENE 3.5 mph - N/A Rain Light Rain Showers
9:00 PM 42.8 °F 41.1 °F 39.2 °F 87% 30.18 in 25.0 mi NW 3.5 mph - N/A   Mostly Cloudy
10:00 PM 41.0 °F - 35.6 °F 81% 30.19 in 25.0 mi NW 2.3 mph - N/A   Scattered Clouds
11:00 PM 41.0 °F - 35.6 °F 81% 30.19 in 25.0 mi NW 2.3 mph - N/A   Overcast